Dewpoint
60 55 50 46 50 46 41 38 25 32 25 20 18 20 17 21 25 21 24 22 25 27 27 38 34 33 26 32 35 39 48 43 44 40 37 46 60 65 66 67 68 68 68 69 70 69 69 69 70 70 70 70 70 69 69 69 69 68 67 67 66 65 65 65 65 64 63 63 64 64 63 67 70 70 69 69 68 67 67 67 66 66 66 65 65 65 64 64 64 64 65 66 66 66 65 64 64
57 51 47 47 46 39 34 40 30 22 22 18 18 19 16 23 20 20 20 22 26 30 38 49 51 51 52 53 54 50 45 57 53 50 58 64 65 65 67 68 68 68 69 69 69 69 69 69 69 70 70 70 70 69 70 69 69 69 68 67 66 65 65 64 64 64 63 63 63 63 65 69 69 70 70 69 68 67 66 65 65 65 65 64 64 64 64 64 64 64 65 66 66 66 65 64 64
56 49 47 44 40 40 38 35 26 22 18 14 16 18 23 22 18 20 22 23 26 36 45 46 41 43 46 48 44 41 37 58 59 60 63 65 63 64 67 68 68 68 69 69 69 69 69 69 69 70 70 70 70 69 69 69 68 68 67 66 66 66 65 65 65 64 64 64 64 63 63 69 69 68 69 69 68 67 66 66 65 66 66 65 64 64 64 63 63 64 65 66 66 66 65 64 64
52 53 47 43 38 41 31 31 26 19 19 18 16 20 26 24 22 24 26 25 30 39 33 32 36 33 47 46 48 53 55 57 58 61 62 63 61 66 68 68 68 69 68 69 69 69 69 69 69 70 70 70 70 69 69 69 69 69 67 67 67 66 65 66 65 65 64 64 64 63 65 66 67 67 68 68 67 66 66 66 66 63 63 62 62 62 63 62 63 64 65 65 66 66 65 64 64
51 55 48 44 38 34 31 29 25 22 15 18 14 21 30 30 24 26 26 28 29 29 30 33 44 47 48 50 49 47 48 56 60 60 61 62 65 68 68 68 68 69 68 69 69 69 69 69 70 70 70 70 70 69 69 69 69 68 67 67 66 66 66 66 66 65 64 63 64 63 65 66 66 66 66 67 66 65 65 65 65 63 63 63 62 62 63 63 64 64 65 65 66 65 64 64 64
48 48 48 40 30 38 25 18 20 16 19 19 19 20 28 28 25 27 28 29 29 29 30 31 43 45 49 50 50 51 54 56 58 59 60 62 66 68 68 68 68 68 69 69 69 69 69 69 70 70 71 70 70 69 69 69 69 69 68 67 67 66 66 65 65 64 64 64 63 63 64 64 65 67 66 67 67 68 68 67 65 63 62 62 62 62 62 63 64 64 66 65 65 64 64 65 66
41 43 41 38 37 34 27 21 18 19 16 21 23 27 28 28 27 27 26 25 26 24 26 36 45 46 47 49 52 55 56 58 59 59 62 64 67 68 68 68 68 68 69 69 69 68 68 69 71 71 71 71 70 69 69 69 69 69 69 68 67 67 66 66 65 65 65 65 64 63 62 63 64 66 65 65 66 67 67 67 66 64 63 62 62 63 64 64 63 64 65 66 66 67 66 66 66
48 38 39 29 30 29 23 22 21 25 18 23 25 27 28 28 27 26 25 26 26 24 34 41 40 39 40 49 49 54 56 58 59 62 65 66 67 67 67 68 68 68 68 68 68 68 69 68 70 70 71 71 69 69 69 69 69 69 69 67 67 67 66 66 65 65 65 65 64 63 63 64 65 66 65 65 65 67 67 65 64 64 63 62 62 62 63 64 63 64 64 65 66 66 66 66 67
43 36 39 32 26 28 19 18 17 22 21 25 27 31 37 29 26 24 24 25 22 22 32 35 31 32 36 50 49 53 56 59 61 64 66 66 66 67 67 67 67 68 68 69 68 68 68 68 70 70 70 70 70 69 69 69 69 69 69 69 67 66 66 66 66 65 65 64 64 64 63 64 64 64 65 65 65 66 66 65 63 63 62 62 62 63 63 64 64 64 65 65 66 66 66 66 67
37 30 26 28 32 20 21 18 18 18 21 25 28 27 29 27 26 23 21 20 20 23 25 28 30 27 38 48 51 55 57 59 62 64 65 66 66 66 67 67 67 68 68 69 69 68 68 70 68 69 70 70 70 69 69 68 69 69 69 68 68 67 66 66 66 66 65 65 64 64 63 64 63 63 63 65 65 65 65 64 63 62 62 62 62 64 64 64 64 64 65 65 65 65 65 66 66
31 36 37 26 25 20 19 17 20 20 22 21 23 23 28 26 23 22 22 19 26 22 24 33 38 45 47 48 49 54 57 59 62 63 65 66 66 66 66 67 67 68 68 69 69 68 68 68 69 68 69 69 69 70 69 69 69 69 69 69 67 67 66 66 66 66 66 65 64 64 63 63 62 63 63 64 65 65 64 63 63 63 62 61 61 63 63 64 64 64 65 65 65 65 65 65 65
28 31 33 25 22 20 22 21 22 20 19 20 23 25 23 25 22 20 22 18 23 24 25 34 33 46 46 46 47 51 57 60 62 64 65 65 65 66 66 67 67 68 68 69 69 69 68 67 68 68 66 66 68 69 69 69 69 69 69 69 67 67 67 67 66 66 66 65 65 64 63 63 63 64 64 64 64 63 62 62 61 62 62 62 61 62 63 64 64 64 65 65 65 65 65 65 64
33 35 28 23 20 22 25 20 19 25 19 19 22 21 21 20 19 20 22 25 26 24 21 24 41 44 42 45 47 54 57 60 61 64 64 65 65 66 67 67 67 68 68 68 69 69 68 67 68 68 66 65 65 66 67 68 69 69 69 69 68 67 67 67 67 66 66 65 65 64 66 66 66 65 64 63 62 62 61 62 63 63 62 61 61 63 64 64 64 64 64 64 64 64 64 64 64
34 36 31 25 26 23 21 21 21 19 17 21 21 21 21 19 19 21 24 24 25 19 21 23 44 47 46 47 49 53 58 59 60 62 63 64 65 66 66 67 67 67 68 68 68 69 68 68 67 67 66 67 67 65 65 67 68 69 69 68 68 67 67 67 66 66 66 66 66 65 65 65 65 65 64 63 62 62 63 63 62 61 61 61 61 64 63 63 63 64 64 64 64 64 64 64 63
32 39 32 27 21 18 22 18 18 19 16 19 18 19 19 21 19 22 24 23 23 21 26 34 41 34 31 45 44 55 59 60 61 61 62 63 65 66 66 67 67 67 68 68 68 68 68 68 68 67 67 66 66 66 65 66 66 67 67 67 67 67 67 67 67 66 66 66 65 64 64 64 64 65 66 65 64 64 64 63 62 61 61 61 62 63 63 63 63 63 64 64 63 63 63 63 62
38 33 27 23 17 19 20 19 24 18 14 19 20 20 18 19 19 21 21 22 24 28 27 26 31 27 31 39 41 53 60 60 61 61 62 63 64 65 66 67 67 67 67 68 68 68 68 68 68 67 67 66 66 65 65 66 65 65 66 66 66 66 66 66 66 65 64 62 62 62 62 61 61 60 60 61 63 63 62 61 63 63 61 61 61 62 62 62 62 63 63 64 63 63 63 62 62
37 32 22 19 16 17 18 18 19 14 20 21 21 18 16 18 20 22 23 25 23 23 44 43 38 51 43 44 49 52 60 60 60 61 61 63 64 64 65 66 66 66 67 67 67 68 68 68 68 67 68 67 66 65 66 66 66 64 64 64 64 64 64 64 64 61 60 60 60 59 59 59 58 59 59 59 59 59 59 60 63 62 61 61 61 60 62 61 61 62 62 62 62 62 61 61 61
30 25 25 20 18 17 20 18 20 19 18 18 20 18 17 17 19 21 20 22 24 26 31 35 48 52 53 55 52 56 59 60 60 60 60 62 64 63 64 64 65 64 65 66 67 67 68 68 67 67 68 67 67 67 67 67 66 65 65 65 65 63 62 61 61 61 61 58 58 58 57 58 57 57 57 60 58 58 59 59 60 62 62 62 62 61 61 61 61 61 61 61 60 58 56 53 55
27 24 25 20 24 19 23 20 20 19 18 19 20 20 17 17 19 20 19 19 23 25 26 33 46 48 53 55 55 58 59 59 60 60 59 60 62 63 63 64 64 65 65 65 66 67 67 68 68 67 68 68 67 67 67 67 67 67 66 66 64 61 61 61 60 60 59 58 57 57 56 57 56 56 56 58 58 58 58 58 60 61 62 62 62 62 61 60 60 60 59 58 56 55 51 51 51
30 22 15 20 27 22 21 21 20 20 20 19 19 19 17 17 19 21 19 18 21 21 24 33 39 43 51 54 55 58 59 59 60 60 59 60 62 63 64 63 64 64 65 65 65 67 67 67 67 68 68 68 67 67 67 66 67 67 67 66 64 62 60 60 59 59 59 58 58 57 57 56 56 57 59 59 59 57 58 58 59 60 60 60 60 60 60 60 58 57 55 54 52 51 50 50 51
26 25 19 20 25 19 19 22 21 22 20 19 18 16 15 17 18 17 16 18 19 19 23 29 30 45 52 54 55 57 58 58 59 59 59 59 59 63 64 65 64 65 65 66 65 66 67 67 67 67 68 68 67 67 66 66 67 67 67 66 65 62 60 59 59 59 58 58 57 57 57 56 56 56 56 57 57 57 56 57 58 57 57 56 56 53 50 49 48 47 48 48 48 49 49 49 50
24 21 26 24 24 19 19 22 26 21 19 18 16 16 15 19 18 16 18 17 16 17 18 25 29 48 54 55 56 57 57 58 59 59 59 59 59 61 63 64 64 64 65 65 65 66 66 67 67 67 67 67 67 67 67 66 67 67 66 66 65 62 61 59 59 58 58 57 57 57 56 56 56 56 56 56 56 56 57 56 56 55 55 54 53 49 46 46 45 46 46 47 47 47 48 48 48
17 19 20 23 22 20 21 24 25 17 17 16 16 17 18 17 19 17 16 14 14 17 18 20 26 53 55 56 57 56 57 57 58 59 59 59 59 59 62 64 64 64 64 65 65 66 66 67 67 67 67 67 67 67 67 66 67 67 67 66 65 63 61 60 59 58 58 57 57 57 57 56 55 55 55 55 56 56 56 55 54 53 55 53 50 47 46 45 45 45 45 46 46 47 47 47 47
22 18 19 21 24 21 24 22 23 18 16 16 16 19 18 18 16 18 14 14 13 16 23 21 34 54 56 56 56 57 57 57 58 59 59 60 59 59 61 62 64 64 64 65 65 66 66 66 67 67 67 67 67 67 67 66 67 67 67 65 65 64 62 60 59 58 57 57 58 57 56 56 56 55 54 55 55 55 55 55 54 53 53 51 47 47 45 44 44 44 45 45 46 46 46 46 47
19 18 22 21 23 23 24 23 22 21 21 23 20 17 17 18 18 20 17 16 16 18 28 32 53 55 55 55 56 56 56 57 57 58 59 59 59 58 57 59 60 62 63 64 65 66 66 66 66 67 67 67 67 67 67 67 67 67 66 66 65 63 64 62 60 59 57 57 58 57 56 56 55 55 54 54 53 54 54 54 53 53 53 50 46 47 44 43 43 44 45 44 45 45 45 45 45
17 18 22 23 22 23 23 22 22 22 22 21 19 19 20 21 21 20 20 20 21 28 35 47 53 54 54 55 56 56 56 56 57 57 58 58 56 57 58 59 60 61 63 64 64 65 66 66 66 66 66 67 67 67 67 67 67 67 66 66 66 64 65 64 62 59 58 58 58 57 56 56 56 55 54 53 54 53 52 52 52 52 52 48 46 47 44 43 43 43 43 43 44 44 44 44 45
18 22 22 22 23 23 23 21 22 23 23 22 19 19 20 22 19 15 17 19 29 29 35 45 52 53 54 54 55 56 56 56 56 57 55 56 56 57 58 58 58 60 61 62 64 64 65 66 66 66 66 66 67 67 67 67 67 67 66 66 66 65 66 65 64 61 59 59 59 57 56 56 56 55 54 53 52 52 52 51 52 51 51 47 46 47 44 43 42 42 43 43 43 43 43 43 44
23 23 22 21 22 25 23 22 22 22 19 20 19 19 21 21 21 16 17 22 25 26 30 42 47 51 53 53 54 55 55 56 56 54 56 56 58 58 58 59 59 60 60 61 63 63 64 65 66 66 66 66 66 66 66 67 67 67 66 66 66 65 65 66 65 63 59 59 60 57 56 56 55 55 54 52 51 50 51 51 51 50 51 46 46 47 44 42 41 41 41 42 42 41 40 41 42
23 20 16 20 21 21 21 21 22 23 22 23 21 18 16 21 19 21 22 23 24 26 28 32 40 45 49 51 53 53 55 55 53 54 56 57 58 58 58 59 59 59 60 61 62 62 63 64 65 65 66 66 66 66 66 66 67 67 67 66 66 66 65 66 65 65 62 60 61 59 56 55 55 55 54 52 50 49 49 49 49 49 50 45 48 46 44 42 40 39 39 39 38 38 38 38 40
21 21 19 16 19 16 20 24 23 22 22 25 17 6 9 11 18 21 21 19 22 22 25 28 30 31 36 45 50 52 53 51 53 54 55 56 57 57 58 58 59 59 60 60 60 61 63 64 64 65 65 66 65 66 66 66 66 67 67 67 66 66 66 65 65 65 65 62 62 61 58 56 54 55 54 52 49 47 47 48 48 48 47 44 48 45 43 40 38 38 38 38 39 38 38 38 39
17 18 22 20 12 12 17 23 23 20 23 24 8 9 7 8 10 13 17 20 21 21 21 23 26 28 29 32 40 48 51 52 53 54 54 55 55 56 57 57 57 58 58 58 59 61 61 63 64 64 64 65 65 66 66 66 66 66 66 67 66 66 66 66 66 65 65 65 63 62 60 57 55 55 54 52 49 47 46 46 46 47 46 45 48 45 42 40 38 37 37 38 37 37 37 37 39
17 11 13 21 9 13 20 25 21 18 21 19 14 15 11 10 12 16 23 26 21 20 20 21 22 24 25 26 29 34 40 45 49 51 53 54 54 55 55 56 57 57 58 59 59 59 61 62 62 63 63 64 64 65 65 66 66 66 66 64 66 66 66 66 66 66 65 65 65 64 62 59 56 56 54 53 50 46 45 44 44 44 45 46 48 45 42 39 37 38 37 38 37 35 35 35 35
22 12 14 16 19 16 18 24 27 26 23 23 13 11 14 17 20 19 22 23 22 20 20 21 21 22 23 23 24 27 30 31 35 42 47 50 53 54 54 55 56 56 57 58 58 58 59 61 61 62 63 63 64 64 64 65 65 65 65 65 66 66 66 66 66 66 66 65 65 65 64 61 58 57 56 54 51 47 44 42 41 42 44 46 47 46 43 40 38 38 36 37 38 35 35 33 33
16 21 14 22 16 15 14 20 24 26 22 20 22 17 15 16 17 18 21 24 23 22 21 21 21 22 22 23 23 23 25 27 28 30 35 42 48 52 53 53 55 56 56 57 57 58 59 60 61 61 62 62 63 63 63 64 64 65 64 65 64 65 65 66 66 66 66 65 65 65 65 64 61 58 58 55 52 48 45 43 40 40 43 45 46 46 43 40 38 37 35 35 36 35 33 32 32
17 18 15 14 17 17 14 21 21 23 23 20 21 21 20 20 20 21 22 23 23 22 22 22 22 21 22 23 23 23 23 24 25 27 28 32 39 46 51 52 53 55 56 57 57 58 58 59 60 60 61 62 62 62 61 62 63 63 63 63 63 63 64 65 65 65 65 65 65 65 65 64 63 61 60 58 55 52 48 46 44 41 41 44 46 46 45 42 38 37 36 34 34 34 34 32 31
18 20 17 19 16 16 17 20 22 24 22 22 21 20 20 20 21 21 21 22 22 22 22 23 23 23 23 22 23 23 24 23 24 27 29 28 31 37 45 50 52 53 55 56 56 57 57 58 59 60 60 61 61 60 59 60 61 62 61 60 61 62 63 62 64 65 65 65 64 65 65 65 64 63 62 60 58 56 53 50 48 45 43 44 45 46 45 42 39 37 36 33 32 31 31 31 31
22 25 22 18 17 20 22 24 25 25 21 21 22 22 21 21 21 22 22 22 21 20 20 21 21 22 23 23 23 24 24 24 29 31 30 31 32 32 39 47 51 52 53 54 55 56 57 58 58 59 60 60 60 60 59 60 60 60 61 61 61 62 61 61 61 62 63 64 64 65 64 64 64 64 63 62 61 59 58 57 53 49 45 44 45 45 46 44 40 37 36 34 31 29 29 30 31
19 21 20 19 20 18 21 22 25 26 19 18 22 22 21 20 20 20 20 19 18 18 18 18 19 20 21 22 23 24 24 28 29 28 29 33 34 34 37 44 48 50 52 53 55 56 57 58 58 59 59 59 60 60 60 59 60 61 61 61 62 62 60 60 60 61 62 62 63 64 64 64 64 64 62 63 62 61 60 60 58 55 51 47 46 46 46 44 42 39 37 34 32 30 29 29 31
25 19 22 20 19 23 22 23 23 25 21 19 20 22 21 21 21 21 20 19 19 18 18 17 17 17 19 20 21 22 24 24 26 27 29 29 34 36 36 42 47 50 51 53 54 55 56 57 58 58 58 59 60 60 60 59 59 59 60 58 61 58 56 58 58 57 58 60 62 63 64 64 64 64 64 62 63 62 61 61 60 57 53 50 48 49 48 46 44 43 41 37 31 31 30 31 29
21 18 17 17 22 20 20 20 23 23 21 21 22 22 21 20 20 21 22 22 21 23 22 21 22 19 19 18 19 21 22 23 24 24 25 26 30 33 35 37 43 48 50 50 52 54 55 56 57 57 58 58 59 59 58 59 57 55 55 53 53 57 56 53 54 52 55 57 59 61 62 64 64 64 64 63 63 63 62 62 61 59 55 52 50 49 48 47 45 42 39 37 34 30 28 28 29
22 24 23 23 24 24 19 19 23 20 21 25 19 15 12 17 18 18 16 16 15 22 13 12 21 28 26 29 28 29 25 23 24 25 26 27 29 30 33 34 38 43 48 50 52 54 55 56 57 57 58 57 58 57 57 56 54 52 49 49 49 51 51 51 51 54 55 56 58 58 60 61 63 64 64 64 62 63 63 62 62 60 57 55 52 51 50 48 46 43 40 38 34 33 30 28 28
21 23 24 20 22 24 25 22 18 18 15 19 16 9 17 19 17 18 19 9 10 10 13 12 13 15 20 21 23 26 29 29 28 26 26 27 28 30 33 35 36 40 44 48 51 53 53 55 55 56 56 56 57 56 56 55 56 56 53 54 54 52 53 52 53 56 55 55 57 58 58 60 61 62 63 64 63 62 63 62 62 61 59 56 53 53 52 51 48 46 42 39 36 35 34 30 28
19 17 25 21 23 25 24 21 19 14 6 13 19 5 11 14 13 7 7 13 13 12 12 12 10 10 12 17 21 23 25 26 27 29 30 31 32 34 35 36 36 36 40 44 46 49 51 51 53 55 56 55 55 55 55 55 55 55 55 56 56 56 56 55 52 50 54 53 52 56 58 58 59 61 62 63 63 63 63 63 62 62 60 58 55 53 52 51 50 47 45 42 40 37 37 35 32
19 21 26 26 24 24 23 22 20 19 22 23 24 14 8 12 11 14 14 12 9 7 6 8 9 11 16 21 26 23 25 28 30 30 32 34 36 37 36 37 37 37 37 42 44 46 50 51 52 53 53 53 53 54 54 55 56 55 54 55 55 56 56 56 53 52 48 49 52 54 55 57 58 59 60 61 62 62 62 62 62 62 62 60 57 55 55 53 51 49 45 42 41 39 37 37 34
19 26 27 25 23 25 25 24 24 25 18 17 20 24 9 14 16 18 15 8 7 6 7 10 11 16 25 33 35 33 27 27 31 33 33 35 37 38 39 39 38 37 38 40 42 44 45 47 48 49 51 51 51 52 53 53 55 55 55 55 54 55 55 55 49 48 50 47 50 51 52 55 57 58 59 60 61 62 61 61 62 61 61 61 57 57 55 55 54 52 49 45 43 42 39 39 37
29 29 30 28 27 26 25 23 22 18 11 14 15 15 4 11 18 16 13 10 9 9 8 10 13 16 25 33 35 36 36 36 36 37 37 38 38 38 38 38 38 38 38 39 40 41 43 44 46 47 49 49 50 51 52 52 53 53 54 53 54 55 52 50 47 49 48 46 49 49 50 52 55 56 57 58 59 60 60 60 60 60 60 60 57 58 57 55 54 52 50 47 46 45 44 43 44
32 29 26 24 22 24 23 21 14 10 3 15 19 21 9 6 15 14 8 12 5 8 12 13 16 22 25 30 34 36 36 37 37 37 37 37 36 36 37 38 37 37 37 38 39 40 41 42 43 45 47 47 47 50 51 51 52 52 53 53 53 53 52 50 49 49 47 46 49 49 49 50 52 54 56 57 57 58 58 58 59 59 59 57 56 57 57 57 56 54 52 49 46 44 44 43 41
28 24 21 20 18 19 18 15 18 4 5 12 16 20 10 5 12 16 14 13 12 12 13 14 15 18 25 29 32 35 36 37 38 37 38 38 38 38 37 37 37 37 37 38 39 40 40 41 41 43 43 45 46 47 48 50 51 51 52 53 53 53 52 51 50 51 49 49 49 49 48 47 49 50 53 55 56 56 56 57 56 57 58 59 59 58 57 56 56 55 53 51 50 48 46 43 42
23 19 17 15 7 11 8 8 4 6 6 17 20 22 14 13 11 10 11 12 15 16 14 15 16 16 25 30 32 35 36 36 38 38 38 38 37 37 38 37 36 36 38 38 38 39 39 40 40 42 43 43 45 45 47 48 49 50 51 51 52 51 51 51 51 51 50 49 49 49 48 48 48 48 50 52 54 55 55 56 56 57 57 57 57 58 58 57 57 56 54 52 50 48 47 46 46
22 19 15 9 -1 2 -4 -2 1 4 10 16 19 21 14 15 13 17 15 14 16 17 16 18 18 19 25 29 32 35 36 35 35 36 36 36 37 37 36 37 37 36 35 36 37 38 39 40 40 41 42 42 43 44 46 47 48 49 50 50 51 50 50 50 50 50 50 49 49 49 49 49 49 49 49 50 52 53 54 55 55 56 56 56 56 56 56 56 56 56 55 54 52 51 48 47 45
20 22 16 15 9 4 -5 -3 -6 3 12 14 18 7 13 3 13 17 18 19 22 22 21 22 24 25 27 29 32 30 29 29 32 34 36 37 38 37 38 38 37 37 37 37 36 37 38 39 40 40 42 42 42 44 45 46 48 48 48 49 49 48 49 49 50 50 49 48 48 48 48 48 49 49 49 49 47 50 51 53 53 54 55 55 55 55 55 55 55 55 54 54 52 51 50 48 48
25 23 18 9 7 15 -5 7 4 4 5 5 12 11 17 7 9 17 18 20 21 22 19 16 13 15 26 26 26 27 29 31 33 34 36 37 37 38 38 39 38 37 37 36 37 37 38 39 39 41 42 42 42 43 44 46 47 47 46 47 48 47 47 48 48 47 47 47 47 48 48 48 48 48 47 46 46 47 49 50 50 51 52 52 52 52 52 53 53 53 53 53 52 51 50 48 48
23 21 16 22 21 19 12 10 12 8 7 9 9 17 19 18 8 11 15 12 10 11 13 13 14 18 21 22 26 27 29 31 33 34 35 36 38 38 37 38 39 40 40 39 38 37 38 39 40 41 41 41 42 42 44 44 45 45 46 46 46 46 47 47 48 47 47 46 47 47 47 48 47 46 46 44 45 45 47 48 48 49 49 50 51 51 51 51 51 52 52 52 51 51 49 49 48
24 18 22 25 24 21 11 3 5 0 2 8 10 9 12 6 11 17 10 11 9 10 13 17 19 21 21 23 25 26 28 31 33 34 35 35 35 36 38 38 37 39 39 40 39 37 37 38 39 40 40 41 42 42 43 43 44 44 44 45 46 46 47 47 47 47 46 46 46 46 45 46 46 45 45 44 44 45 45 45 47 47 46 47 48 49 49 49 50 51 51 51 51 50 49 49 48
25 24 26 19 13 10 15 10 -1 2 -1 5 10 13 13 12 10 12 7 8 8 11 16 17 18 19 21 23 26 28 30 32 33 33 34 35 36 37 37 38 38 38 38 39 39 38 37 38 38 40 41 41 41 42 41 42 42 44 45 45 45 46 46 46 46 45 44 45 46 45 45 46 43 43 43 43 43 43 43 43 44 44 44 45 45 46 47 49 49 50 50 50 49 49 48 48 48
29 25 22 27 21 18 9 11 10 11 -0 -6 9 4 6 16 14 11 6 9 11 13 17 17 18 20 20 22 25 27 29 31 32 32 33 34 35 35 36 37 38 39 39 38 38 37 38 38 38 39 39 40 40 41 40 42 42 42 43 43 44 45 45 45 45 44 45 45 45 45 45 43 44 42 43 42 43 42 41 41 41 42 43 43 44 44 45 47 47 48 48 47 47 47 47 47 46
24 23 21 24 21 22 21 14 12 7 -1 -1 -2 4 10 14 16 12 7 7 11 16 19 21 21 21 21 23 24 26 29 31 31 31 33 34 34 35 37 37 37 36 34 35 36 37 38 37 38 38 39 40 40 40 39 41 40 42 41 42 43 42 43 43 43 43 44 45 45 44 44 44 39 43 41 41 42 42 42 41 42 42 43 44 45 45 44 45 45 46 45 46 44 44 45 45 44
24 22 21 23 21 15 9 15 17 7 4 3 -3 6 8 15 15 12 9 8 12 20 21 22 21 21 22 25 25 25 29 29 30 30 30 33 33 34 34 35 33 35 37 37 37 36 36 36 37 37 38 39 40 41 40 40 40 41 41 42 41 39 42 41 42 42 43 44 43 43 42 38 41 42 39 41 41 41 40 40 41 42 42 43 44 45 44 44 44 44 43 44 44 42 42 43 42